Location: LC-39B
(28.6273°N, 80.6211°W)
Time: 07:23:23
(UTC+00:00)

ISS - Visible Passes

Search period start: 20 November 2018 00:00
Search period end: 30 November 2018 00:00
Orbit: 401 x 408 km, 51.6° (Epoch: 20 November)

Date Brightness Start Highest point End Pass type
(mag) Time Alt. Az. Time Alt. Az. Time Alt. Az.
20 Nov -0.4 00:47:13 10° SW 00:47:14 10° SW 00:47:14 10° SW visible
20 Nov -3.3 23:55:10 10° SSW 23:57:51 47° SSE 23:57:51 47° SSE visible
21 Nov -2.3 23:03:44 10° S 23:06:20 22° SE 23:08:23 13° E visible
22 Nov -0.7 00:40:14 10° W 00:41:05 14° W 00:41:05 14° W visible
22 Nov -2.8 23:47:26 10° WSW 23:50:31 41° NW 23:51:30 31° N visible
23 Nov -3.9 22:55:09 10° SW 22:58:23 78° SE 23:01:39 10° NE visible
24 Nov -1.3 23:40:42 10° W 23:42:50 16° NW 23:44:46 11° N visible
25 Nov -2.3 22:47:36 10° WSW 22:50:32 31° NW 22:53:30 10° NNE visible
